Weather in Sasebo

Japan     33°10′17″N   129°43′04″E
temp.,
°C
wind,
m/s
gust,
m/s
humid.,
%
clouds,
%
prec.,
mm/h
press.,
hPa
HPBL,
m
11 may, tue
tue1100:00+15ene119397 0.0 101312
03:00+15e1191100 0.0 101217
06:00+16ene2385100 0.0 101279
09:00+19ene2379100 0.0 1012205
12:00+23ene2366100 0.0 1012625
15:00+21ne3473100 0.4 1011361
18:00+19sw0190100 1.0 101127
21:00+18se1192100 1.1 101219
12 may, wed
wed1200:00+18ese1195100 0.0 101211
03:00+17se2298100 0.4 101162
06:00+17e2397100 0.4 1011100
09:00+17e31096100 1.3 1012653
12:00+17e3994100 2.3 1011549
15:00+16e2897100 8.1 1010512
18:00+16e2895100 3.3 1011455
21:00+16ene2397100 5.5 1012116
13 may, thu
thu1300:00+16e1295100 0.4 101240
03:00+16ene2294100 0.6 101143
06:00+16e2293100 0.4 101236
09:00+18ese2291100 0.5 1012105
12:00+22ese1277100 0.0 1012408
15:00+22sse1275100 0.0 1010473
18:00+19ene018777 0.0 101126
21:00+18ese0191100 0.0 101311
14 may, fri
fri1400:00+17e1193100 0.0 101211
03:00+18e1188100 0.0 101214
06:00+18e1189100 0.1 101231
09:00+19ese128982 0.4 1013113
12:00+19se1289100 0.2 101299
15:00+20ese1193100 1.3 101253
18:00+19se2597100 1.0 1012164
21:00+19se2696100 1.0 1013224
15 may, sat
sat1500:00+19se3696100 0.0 1013194
03:00+19se3697100 0.9 1012237
06:00+19se3899100 1.3 1012380
09:00+20sse41398100 7.0 1012750
12:00+22s71391100 2.4 1012954
15:00+25s81376100 2.4 10111135
18:00+22s61394100 0.2 1011901
21:00+21s5139694 0.3 1011766